Regional Weather Roundup
Issued by NWS

Home | Current Version | Previous Version | Text Only | Print | Product List | Glossary On
Versions: 1 2 3 4 5 6 7 8 9 10 11 12 13 14 15 16 17 18 19 20 21 22 23 24 25 26 27 28 29 30 31 32 33 34 35 36 37 38 39 40 41 42 43 44 45 46 47 48 49 50
000
ASUS43 KOAX 242210
RWRNE

WEATHER ROUNDUP FOR NEBRASKA
NATIONAL WEATHER SERVICE OMAHA NE
500 PM CDT WED AUG 24 2016

NOTES: SATELLITE DATA IS BEING USED TO AUGMENT CLOUD COVER ABOVE
       12000 FEET.
       "FAIR" INDICATES FEW OR NO CLOUDS BELOW 12,000 FEET WITH NO
       SIGNIFICANT WEATHER AND/OR OBSTRUCTIONS TO VISIBILITY.

  * THESE STATIONS DO NOT REPORT WEATHER SUCH AS RAIN...SNOW OR FOG.

NEZ001>004-019>022-054>056-242300-
NEBRASKA PANHANDLE

CITY           SKY/WX    TMP DP  RH WIND       PRES   REMARKS
SCOTTSBLUFF    CLOUDY    74  47  38 E10       30.13F
ALLIANCE       CLOUDY    72  42  34 SE6       30.16S
CHADRON        SUNNY     77  40  26 E9        30.13F
KIMBALL        CLOUDY    68  45  44 S18       30.18F
SIDNEY         MOSUNNY   71  38  29 SE9       30.19F
$$

NEZ057>060-069>072-079>082-242300-
SOUTHWEST NEBRASKA

CITY           SKY/WX    TMP DP  RH WIND       PRES   REMARKS
NORTH PLATTE   CLOUDY    77  45  32 E9        30.13S
IMPERIAL       CLOUDY    77  36  22 E12       30.15R
LEXINGTON      MOSUNNY   78  45  31 NE13      30.12R
MCCOOK         CLOUDY    76  43  30 NE15      30.12S
OGALLALA       MOSUNNY   77  34  21 E9        30.15R
$$

NEZ005>010-023>029-035>040-094-242300-
NORTH CENTRAL NEBRASKA

CITY           SKY/WX    TMP DP  RH WIND       PRES   REMARKS
VALENTINE      MOSUNNY   70  47  43 CALM      30.14S
AINSWORTH      CLOUDY    70  53  54 CALM      30.14F
BROKEN BOW     CLOUDY    76  48  37 NE8       30.12F
O`NEILL        CLOUDY    79  47  31 N7        30.10S
ORD            PTSUNNY   77  49  37 E6        30.10F
THEDFORD       CLOUDY    73  45  37 NE3       30.15F
$$

NEZ041-046>049-061>064-073>077-083>087-242300-
SOUTH CENTRAL NEBRASKA

CITY           SKY/WX    TMP DP  RH WIND       PRES   REMARKS
GRAND ISLAND   CLOUDY    70  55  59 NE7       30.08F
AURORA         CLOUDY    71  61  71 N6        30.08S
HASTINGS       CLOUDY    70  59  68 NW7       30.10R
HEBRON         LGT RAIN  64  63  94 E13       30.05F
HOLDREGE       PTSUNNY   72  51  47 NE12      30.12R
KEARNEY *      CLOUDY    72  55  56 NE10      30.10S
YORK           LGT RAIN  68  63  83 N3        30.07F
$$

NEZ011>018-030>034-042>045-242300-
NORTHEAST NEBRASKA

CITY           SKY/WX    TMP DP  RH WIND       PRES   REMARKS
NORFOLK        PTSUNNY   71  55  56 NW3       30.10R
ALBION         CLOUDY    70  58  66 NE3       30.09F
BLAIR          CLOUDY    74  63  68 NW6       30.06R
FREMONT        CLOUDY    73  62  69 NW10      30.07R
TEKAMAH        CLOUDY    73  63  70 NW9       30.05R
WAYNE          CLOUDY    71  61  69 CALM      30.10R
$$

NEZ050>053-065>068-078-088>093-242300-
SOUTHEAST NEBRASKA

CITY           SKY/WX    TMP DP  RH WIND       PRES   REMARKS
LINCOLN        LGT RAIN  71  65  81 N8        30.05F
OMAHA EPPLEY   CLOUDY    76  63  64 NW8       30.03R
BEATRICE       HVY RAIN  67  65  91 N14G22    30.02S
FALLS CITY     CLOUDY    79  73  82 MISG      29.99F
NEBRASKA CITY  RAIN      72  71  96 CALM      30.03S
PLATTSMOUTH    CLOUDY    73  71  93 NW6       30.02F
$$

NEZ044-045-051>053-067-242300-
OMAHA AREA

CITY           SKY/WX    TMP DP  RH WIND       PRES   REMARKS
OMAHA EPPLEY   CLOUDY    76  63  64 NW8       30.03R
BLAIR          CLOUDY    74  63  68 NW6       30.06R
FREMONT        CLOUDY    73  62  69 NW10      30.07R
MILLARD        LGT RAIN  76  62  60 N5        30.03F
OFFUTT AFB     LGT RAIN  73  64  73 N9        30.00F
PLATTSMOUTH    CLOUDY    73  71  93 NW6       30.02F
WAHOO          FAIR      72  64  77 N6        30.06S
$$



USA.gov is the U.S. government's official web portal to all federal, state and local government web resources and services.